TimeCDT,TemperatureF,Dew PointF,Humidity,Sea Level PressureIn,VisibilityMPH,Wind Direction,Wind SpeedMPH,Gust SpeedMPH,PrecipitationIn,Events,Conditions,WindDirDegrees,DateUTC
12:43 AM,48.2,30.2,50,30.39,10.0,South,3.5,-,N/A,,Clear,190,2012-10-04 05:43:00
1:43 AM,46.4,30.2,53,30.39,10.0,SW,8.1,-,N/A,,Clear,220,2012-10-04 06:43:00
3:56 AM,42.8,32.0,66,30.39,10.0,Calm,Calm,-,N/A,,Clear,0,2012-10-04 08:56:00
4:49 AM,42.8,30.2,61,30.38,10.0,Calm,Calm,-,N/A,,Clear,0,2012-10-04 09:49:00
5:48 AM,39.2,30.2,70,30.39,10.0,NE,3.5,-,N/A,,Clear,40,2012-10-04 10:48:00
6:48 AM,39.2,30.2,70,30.40,10.0,Calm,Calm,-,N/A,,Clear,0,2012-10-04 11:48:00
7:41 AM,39.2,30.2,70,30.40,10.0,SSW,5.8,-,N/A,,Clear,200,2012-10-04 12:41:00
8:40 AM,46.4,35.6,66,30.42,10.0,SSW,5.8,-,N/A,,Clear,200,2012-10-04 13:40:00
9:40 AM,57.2,39.2,51,30.43,10.0,Calm,Calm,-,N/A,,Clear,0,2012-10-04 14:40:00
10:40 AM,64.4,39.2,40,30.44,10.0,Calm,Calm,-,N/A,,Clear,0,2012-10-04 15:40:00
11:40 AM,71.6,35.6,27,30.44,10.0,ESE,17.3,-,N/A,,Clear,110,2012-10-04 16:40:00
12:40 PM,73.4,33.8,23,30.44,10.0,ENE,20.7,-,N/A,,Clear,60,2012-10-04 17:40:00
1:40 PM,75.2,35.6,24,30.40,10.0,ESE,13.8,-,N/A,,Clear,120,2012-10-04 18:40:00
2:44 PM,78.8,35.6,21,30.38,10.0,East,12.7,-,N/A,,Clear,90,2012-10-04 19:44:00
3:40 PM,78.8,33.8,20,30.35,10.0,East,13.8,-,N/A,,Clear,80,2012-10-04 20:40:00
4:51 PM,78.8,30.2,17,30.34,10.0,East,6.9,-,N/A,,Partly Cloudy,100,2012-10-04 21:51:00
5:51 PM,78.8,30.2,17,30.33,10.0,Calm,Calm,-,N/A,,Partly Cloudy,0,2012-10-04 22:51:00
6:41 PM,77.0,32.0,19,30.33,10.0,East,6.9,-,N/A,,Partly Cloudy,80,2012-10-04 23:41:00
7:41 PM,69.8,28.4,21,30.34,10.0,NE,5.8,-,N/A,,Partly Cloudy,50,2012-10-05 00:41:00
8:45 PM,62.6,26.6,26,30.35,10.0,ESE,5.8,-,N/A,,Clear,110,2012-10-05 01:45:00
9:46 PM,55.4,26.6,33,30.37,10.0,Calm,Calm,-,N/A,,Clear,0,2012-10-05 02:46:00
10:46 PM,53.6,28.4,38,30.39,10.0,Calm,Calm,-,N/A,,Clear,0,2012-10-05 03:46:00